H1 CPF 2 NER 2022 8 30 9 242 01 glonass128 H2 1106401 9128 37867 2022 8 30 0 0 0 2022 9 2 23 45 0 900 1 1 0 0 0 1 H9 10 0 59821 0.00000 0 5431797.334 -15874311.193 19230538.622 10 0 59821 900.00000 0 7091647.379 -17390560.706 17270290.845 10 0 59821 1800.00000 0 8449137.392 -18841969.196 14974855.217 10 0 59821 2700.00000 0 9496225.754 -20166001.592 12388545.563 10 0 59821 3600.00000 0 10237645.127 -21301791.265 9561403.534 10 0 59821 4500.00000 0 10690459.743 -22192727.805 6548242.063 10 0 59821 5400.00000 0 10883105.326 -22788892.786 3407588.309 10 0 59821 6300.00000 0 10853951.081 -23049239.381 200545.980 10 0 59821 7200.00000 0 10649443.819 -22943421.639 -3010400.657 10 0 59821 8100.00000 0 10321912.798 -22453193.527 -6162616.989 10 0 59821 9000.00000 0 9927128.969 -21573315.775 -9194557.137 10 0 59821 9900.00000 0 9521723.475 -20311929.519 -12046985.710 10 0 59821 10800.00000 0 9160576.897 -18690378.670 -14664156.310 10 0 59821 11700.00000 0 8894292.283 -16742486.788 -16994921.548 10 0 59821 12600.00000 0 8766861.619 -14513318.072 -18993750.758 10 0 59821 13500.00000 0 8813626.963 -12057474.383 -20621633.855 10 0 59821 14400.00000 0 9059624.610 -9437000.368 -21846852.405 10 0 59821 15300.00000 0 9518383.790 -6718985.618 -22645602.072 10 0 59821 16200.00000 0 10191231.486 -3972965.558 -23002454.159 10 0 59821 17100.00000 0 11067132.856 -1268231.016 -22910647.581 10 0 59821 18000.00000 0 12123073.456 1328840.009 -22372206.400 10 0 59821 18900.00000 0 13324966.092 3757316.557 -21397881.799 10 0 59821 19800.00000 0 14629042.715 5964009.330 -20006921.119 10 0 59821 20700.00000 0 15983671.132 7905430.849 -18226670.008 10 0 59821 21600.00000 0 17331518.514 9549341.151 -16092017.136 10 0 59821 22500.00000 0 18611969.385 10875816.927 -13644693.822 10 0 59821 23400.00000 0 19763695.343 11877802.386 -10932443.751 10 0 59821 24300.00000 0 20727267.997 12561122.219 -8008080.196 10 0 59821 25200.00000 0 21447705.297 12943959.647 -4928450.066 10 0 59821 26100.00000 0 21876844.754 13055824.714 -1753325.708 10 0 59821 27000.00000 0 21975444.904 12936059.182 1455753.693 10 0 59821 27900.00000 0 21714928.079 12631943.137 4636668.676 10 0 59821 28800.00000 0 21078692.891 12196484.560 7727911.390 10 0 59821 29700.00000 0 20062942.888 11685985.593 10669760.578 10 0 59821 30600.00000 0 18676997.921 11157487.897 13405418.166 10 0 59821 31500.00000 0 16943076.031 10666203.805 15882086.896 10 0 59821 32400.00000 0 14895555.223 10263040.063 18051970.034 10 0 59821 33300.00000 0 12579745.449 9992316.663 19873175.668 10 0 59821 34200.00000 0 10050220.832 9889775.030 21310509.944 10 0 59821 35100.00000 0 7368779.682 9980957.801 22336145.600 10 0 59821 36000.00000 0 4602114.630 10280027.323 22930154.187 10 0 59821 36900.00000 0 1819286.925 10789072.225 23080892.508 10 0 59821 37800.00000 0 -910893.226 11497931.698 22785236.033 10 0 59821 38700.00000 0 -3522474.449 12384546.240 22048654.374 10 0 59821 39600.00000 0 -5954854.218 13415822.224 20885126.274 10 0 59821 40500.00000 0 -8155049.655 14548976.590 19316894.119 10 0 59821 41400.00000 0 -10079655.880 15733308.117 17374060.585 10 0 59821 42300.00000 0 -11696410.740 16912323.594 15094032.878 10 0 59821 43200.00000 0 -12985300.379 18026131.946 12520822.887 10 0 59821 44100.00000 0 -13939158.573 19014007.317 9704214.463 10 0 59821 45000.00000 0 -14563733.377 19817013.988 6698812.194 10 0 59821 45900.00000 0 -14877216.903 20380582.360 3562988.707 10 0 59821 46800.00000 0 -14909256.704 20656926.195 357750.330 10 0 59821 47700.00000 0 -14699489.499 20607197.088 -2854456.721 10 0 59821 48600.00000 0 -14295658.802 20203282.563 -6010975.560 10 0 59821 49500.00000 0 -13751396.395 19429168.847 -9050177.970 10 0 59821 50400.00000 0 -13123762.543 18281807.801 -11912687.659 10 0 59821 51300.00000 0 -12470650.794 16771448.658 -14542561.487 10 0 59821 52200.00000 0 -11848169.428 14921418.354 -16888403.379 10 0 59821 53100.00000 0 -11308112.786 12767358.223 -18904387.035 10 0 59821 54000.00000 0 -10895631.885 10355948.412 -20551165.754 10 0 59821 54900.00000 0 -10647204.931 7743173.551 -21796650.322 10 0 59821 55800.00000 0 -10588995.119 4992203.105 -22616638.956 10 0 59821 56700.00000 0 -10735665.991 2170976.176 -22995286.859 10 0 59821 57600.00000 0 -11089704.616 -650407.062 -22925406.538 10 0 59821 58500.00000 0 -11641280.607 -3402377.137 -22408593.828 10 0 59821 59400.00000 0 -12368645.802 -6018557.189 -21455178.350 10 0 59821 60300.00000 0 -13239056.208 -8438283.785 -20084000.815 10 0 59821 61200.00000 0 -14210175.460 -10608881.879 -18322023.103 10 0 59821 62100.00000 0 -15231898.776 -12487600.317 -16203780.389 10 0 59821 63000.00000 0 -16248518.798 -14043129.087 -13770687.544 10 0 59821 63900.00000 0 -17201140.634 -15256637.486 -11070214.847 10 0 59821 64800.00000 0 -18030243.385 -16122292.953 -8154950.321 10 0 59821 65700.00000 0 -18678279.851 -16647242.192 -5081567.927 10 0 59821 66600.00000 0 -19092205.027 -16851058.704 -1909722.458 10 0 59821 67500.00000 0 -19225827.633 -16764683.043 1299107.043 10 0 59821 68400.00000 0 -19041886.763 -16428902.915 4482802.942 10 0 59821 69300.00000 0 -18513767.700 -15892438.924 7579801.085 10 0 59821 70200.00000 0 -17626786.199 -15209717.609 10530267.055 10 0 59821 71100.00000 0 -16378988.611 -14438425.748 13277235.060 10 0 59821 72000.00000 0 -14781435.263 -13636948.251 15767688.868 10 0 59821 72900.00000 0 -12857955.604 -12861796.267 17953565.698 10 0 59821 73800.00000 0 -10644385.046 -12165131.913 19792665.567 10 0 59821 74700.00000 0 -8187314.388 -11592491.779 21249450.307 10 0 59821 75600.00000 0 -5542402.137 -11180802.991 22295718.534 10 0 59821 76500.00000 0 -2772317.554 -10956773.593 22911144.861 10 0 59821 77400.00000 0 55602.874 -10935723.862 23083673.737 10 0 59821 78300.00000 0 2871891.335 -11120907.344 22809760.587 10 0 59821 79200.00000 0 5607574.810 -11503350.685 22094455.191 10 0 59821 80100.00000 0 8196785.116 -12062220.326 20951324.618 10 0 59821 81000.00000 0 10579246.811 -12765702.663 19402215.601 10 0 59821 81900.00000 0 12702541.167 -13572363.140 17476858.815 10 0 59821 82800.00000 0 14524052.707 -14432929.720 15212320.377 10 0 59821 83700.00000 0 16012517.225 -15292428.076 12652308.732 10 0 59821 84600.00000 0 17149105.921 -16092580.538 9846348.045 10 0 59821 85500.00000 0 17927999.018 -16774368.803 6848832.264 10 0 59822 0.00000 0 18356423.273 -17280652.549 3717977.137 10 0 59822 900.00000 0 18454150.456 -17558732.874 514688.109 10 0 59822 1800.00000 0 18252476.089 -17562750.013 -2698629.501 10 0 59822 2700.00000 0 17792721.505 -17255812.466 -5859299.772 10 0 59822 3600.00000 0 17124321.656 -16611763.931 -8905615.386 10 0 59822 4500.00000 0 16302580.359 -15616510.519 -11778062.308 10 0 59822 5400.00000 0 15386189.104 -14268849.148 -14420503.666 10 0 59822 6300.00000 0 14434616.176 -12580759.429 -16781297.512 10 0 59822 7200.00000 0 13505478.717 -10577144.764 -18814324.472 10 0 59822 8100.00000 0 12652011.100 -8295032.187 -20479903.492 10 0 59822 9000.00000 0 11920738.685 -5782264.002 -21745576.493 10 0 59822 9900.00000 0 11349456.911 -3095736.316 -22586745.765 10 0 59822 10800.00000 0 10965602.087 -299258.927 -22987151.508 10 0 59822 11700.00000 0 10785082.914 2538872.904 -22939180.471 10 0 59822 12600.00000 0 10811621.629 5348492.148 -22444000.473 10 0 59822 13500.00000 0 11036631.362 8060249.152 -21511519.357 10 0 59822 14400.00000 0 11439633.188 10608263.517 -20160170.579 10 0 59822 15300.00000 0 11989193.196 12932628.064 -18416531.244 10 0 59822 16200.00000 0 12644337.813 14981661.170 -16314781.653 10 0 59822 17100.00000 0 13356385.507 16713814.975 -13896018.490 10 0 59822 18000.00000 0 14071115.705 18099161.803 -11207436.545 10 0 59822 18900.00000 0 14731181.922 19120399.411 -8301396.181 10 0 59822 19800.00000 0 15278666.404 19773336.073 -5234395.696 10 0 59822 20700.00000 0 15657668.141 20066838.373 -2065969.385 10 0 59822 21600.00000 0 15816815.402 20022247.040 1142466.951 10 0 59822 22500.00000 0 15711597.601 19672288.124 4328800.667 10 0 59822 23400.00000 0 15306419.428 19059527.432 7431414.441 10 0 59822 24300.00000 0 14576292.077 18234434.644 10390363.715 10 0 59822 25200.00000 0 13508091.780 17253139.119 13148517.821 10 0 59822 26100.00000 0 12101333.810 16174971.510 15652644.151 10 0 59822 27000.00000 0 10368430.133 15059893.515 17854416.217 10 0 59822 27900.00000 0 8334419.809 13965922.136 19711328.023 10 0 59822 28800.00000 0 6036182.691 12946654.643 21187498.841 10 0 59822 29700.00000 0 3521167.689 12048995.962 22254354.587 10 0 59822 30600.00000 0 845686.283 11311181.871 22891173.992 10 0 59822 31500.00000 0 -1927160.411 10761179.319 23085489.802 10 0 59822 32400.00000 0 -4729838.079 10415529.985 22833337.605 10 0 59822 33300.00000 0 -7492924.526 10278685.344 22139347.066 10 0 59822 34200.00000 0 -10147741.183 10342861.726 21016672.800 10 0 59822 35100.00000 0 -12628964.147 10588422.733 19486764.596 10 0 59822 36000.00000 0 -14877108.269 10984774.847 17578979.367 10 0 59822 36900.00000 0 -16840781.988 11491740.777 15330039.965 10 0 59822 37800.00000 0 -18478619.346 12061355.002 12783348.905 10 0 59822 38700.00000 0 -19760808.077 12640007.823 9988167.949 10 0 59822 39600.00000 0 -20670148.636 13170848.927 6998677.598 10 0 59822 40500.00000 0 -21202598.266 13596349.574 3872933.311 10 0 59822 41400.00000 0 -21367275.482 13860914.877 671738.000 10 0 59822 42300.00000 0 -21185923.101 13913434.465 -2542547.173 10 0 59822 43200.00000 0 -20691851.216 13709661.560 -5707229.839 10 0 59822 44100.00000 0 -19928403.966 13214317.101 -8760526.047 10 0 59822 45000.00000 0 -18947014.889 12402826.817 -11642786.347 10 0 59822 45900.00000 0 -17804933.757 11262614.640 -14297682.299 10 0 59822 46800.00000 0 -16562722.316 9793894.861 -16673328.031 10 0 59822 47700.00000 0 -15281626.651 8009927.146 -18723312.796 10 0 59822 48600.00000 0 -14020939.212 5936721.835 -20407622.605 10 0 59822 49500.00000 0 -12835463.945 3612206.798 -21693431.620 10 0 59822 50400.00000 0 -11773193.209 1084890.560 -22555747.000 10 0 59822 51300.00000 0 -10873295.651 -1587921.988 -22977894.410 10 0 59822 52200.00000 0 -10164500.308 -4342285.842 -22951835.002 10 0 59822 53100.00000 0 -9663944.733 -7110052.825 -22478308.431 10 0 59822 54000.00000 0 -9376534.611 -9821486.456 -21566800.295 10 0 59822 54900.00000 0 -9294840.040 -12407944.790 -20235336.043 10 0 59822 55800.00000 0 -9399530.639 -14804518.838 -18510106.970 10 0 59822 56700.00000 0 -9660328.574 -16952516.765 -16424937.223 10 0 59822 57600.00000 0 -10037436.687 -18801691.052 -14020603.823 10 0 59822 58500.00000 0 -10483379.108 -20312117.153 -11344024.426 10 0 59822 59400.00000 0 -10945174.595 -21455647.341 -8447329.983 10 0 59822 60300.00000 0 -11366749.340 -22216881.601 -5386841.306 10 0 59822 61200.00000 0 -11691486.521 -22593617.832 -2221970.298 10 0 59822 62100.00000 0 -11864804.684 -22596765.495 985932.450 10 0 59822 63000.00000 0 -11836656.515 -22249729.149 4174761.344 10 0 59822 63900.00000 0 -11563843.460 -21587290.075 7282848.053 10 0 59822 64800.00000 0 -11012049.775 -20654034.715 10250140.155 10 0 59822 65700.00000 0 -10157511.663 -19502396.855 13019344.476 10 0 59822 66600.00000 0 -8988252.453 -18190395.896 15537014.453 10 0 59822 67500.00000 0 -7504832.781 -16779165.459 17754562.321 10 0 59822 68400.00000 0 -5720584.529 -15330374.589 19629178.395 10 0 59822 69300.00000 0 -3661318.347 -13903647.779 21124641.556 10 0 59822 70200.00000 0 -1364515.733 -12554089.692 22212006.960 10 0 59822 71100.00000 0 1121962.637 -11330015.951 22870159.095 10 0 59822 72000.00000 0 3741601.049 -10270983.054 23086220.320 10 0 59822 72900.00000 0 6431316.788 -9406198.248 22855807.341 10 0 59822 73800.00000 0 9123828.584 -8753375.076 22183130.305 10 0 59822 74700.00000 0 11750210.219 -8318082.360 21080931.586 10 0 59822 75600.00000 0 14242526.147 -8093614.514 19570263.889 10 0 59822 76500.00000 0 16536441.884 -8061389.847 17680109.836 10 0 59822 77400.00000 0 18573701.999 -8191861.926 15446848.097 10 0 59822 78300.00000 0 20304373.183 -8445907.542 12913573.934 10 0 59822 79200.00000 0 21688758.561 -8776634.775 10129284.962 10 0 59822 80100.00000 0 22698902.164 -9131536.370 7147946.059 10 0 59822 81000.00000 0 23319619.004 -9454898.420 4027450.113 10 0 59822 81900.00000 0 23549005.596 -9690362.611 828494.025 10 0 59822 82800.00000 0 23398407.467 -9783532.805 -2386608.094 10 0 59822 83700.00000 0 22891843.339 -9684513.992 -5555150.740 10 0 59822 84600.00000 0 22064908.992 -9350273.658 -8615276.673 10 0 59822 85500.00000 0 20963206.488 -8746722.709 -11507204.275 10 0 59823 0.00000 0 19640365.355 -7850424.822 -14174416.379 10 0 59823 900.00000 0 18155739.386 -6649858.281 -16564786.503 10 0 59823 1800.00000 0 16571879.560 -5146175.539 -18631614.827 10 0 59823 2700.00000 0 14951889.183 -3353424.581 -20334556.663 10 0 59823 3600.00000 0 13356776.424 -1298222.391 -21640420.327 10 0 59823 4500.00000 0 11842916.954 981106.976 -22523819.403 10 0 59823 5400.00000 0 10459734.980 3435893.546 -22967666.200 10 0 59823 6300.00000 0 9247700.954 6008924.327 -22963497.043 10 0 59823 7200.00000 0 8236730.179 8636611.508 -22511623.780 10 0 59823 8100.00000 0 7445048.728 11251434.314 -21621109.702 10 0 59823 9000.00000 0 6878572.762 13784551.514 -20309571.767 10 0 59823 9900.00000 0 6530825.029 16168474.708 -18602814.559 10 0 59823 10800.00000 0 6383389.362 18339690.585 -16534304.778 10 0 59823 11700.00000 0 6406881.061 20241123.018 -14144498.082 10 0 59823 12600.00000 0 6562389.386 21824333.057 -11480032.933 10 0 59823 13500.00000 0 6803328.723 23051366.540 -8592808.447 10 0 59823 14400.00000 0 7077618.146 23896174.210 -5538965.212 10 0 59823 15300.00000 0 7330095.881 24345547.404 -2377789.743 10 0 59823 16200.00000 0 7505065.888 24399532.875 829435.758 10 0 59823 17100.00000 0 7548868.872 24071312.080 4020616.003 10 0 59823 18000.00000 0 7412369.716 23386552.372 7134034.927 10 0 59823 18900.00000 0 7053257.321 22382259.236 10109535.407 10 0 59823 19800.00000 0 6438061.108 21105178.924 12889664.769 10 0 59823 20700.00000 0 5543800.538 19609818.935 15420765.282 10 0 59823 21600.00000 0 4359199.341 17956168.900 17653990.405 10 0 59823 22500.00000 0 2885413.999 16207216.225 19546228.996 10 0 59823 23400.00000 0 1136245.973 14426358.674 21060921.435 10 0 59823 24300.00000 0 -862172.039 12674819.972 22168753.660 10 0 59823 25200.00000 0 -3072204.310 11009173.974 22848217.066 10 0 59823 26100.00000 0 -5446022.466 9479078.619 23086024.330 10 0 59823 27000.00000 0 -7927346.368 8125312.286 22877373.495 10 0 59823 27900.00000 0 -10453546.316 6978193.087 22226054.877 10 0 59823 28800.00000 0 -12958022.380 6056446.459 21144397.754 10 0 59823 29700.00000 0 -15372765.066 5366568.291 19653056.306 10 0 59823 30600.00000 0 -17630993.416 4902710.914 17780636.893 10 0 59823 31500.00000 0 -19669762.552 4647097.997 15563171.552 10 0 59823 32400.00000 0 -21432433.054 4570952.445 13043445.432 10 0 59823 33300.00000 0 -22870899.216 4635900.003 10270188.872 10 0 59823 34200.00000 0 -23947482.177 4795790.926 7297147.840 10 0 59823 35100.00000 0 -24636407.195 4998863.892 4182049.319 10 0 59823 36000.00000 0 -24924801.043 5190161.125 985480.932 10 0 59823 36900.00000 0 -24813165.406 5314092.125 -2230293.386 10 0 59823 37800.00000 0 -24315304.198 5317036.196 -5402557.941 10 0 59823 38700.00000 0 -23457706.120 5149871.490 -8469384.926 10 0 59823 39600.00000 0 -22278407.288 4770320.787 -11370863.054 10 0 59823 40500.00000 0 -20825381.461 4145011.644 -14050289.117 10 0 59823 41400.00000 0 -19154526.054 3251160.579 -16455297.000 10 0 59823 42300.00000 0 -17327329.884 2077807.197 -18538899.893 10 0 59823 43200.00000 0 -15408322.410 626543.599 -20260423.607 10 0 59823 44100.00000 0 -13462413.650 -1088293.563 -21586311.369 10 0 59823 45000.00000 0 -11552238.528 -3039977.633 -22490783.493 10 0 59823 45900.00000 0 -9735618.747 -5190278.665 -22956338.797 10 0 59823 46800.00000 0 -8063249.779 -7490844.899 -22974088.231 10 0 59823 47700.00000 0 -6576710.375 -9885020.360 -22543914.907 10 0 59823 48600.00000 0 -5306877.549 -12310021.463 -21674458.571 10 0 59823 49500.00000 0 -4272812.155 -14699380.517 -20382926.177 10 0 59823 50400.00000 0 -3481159.737 -16985552.911 -18694733.891 10 0 59823 51300.00000 0 -2926089.051 -19102578.417 -16642989.102 10 0 59823 52200.00000 0 -2589767.729 -20988685.246 -14267824.162 10 0 59823 53100.00000 0 -2443351.872 -22588728.357 -11615596.356 10 0 59823 54000.00000 0 -2448444.781 -23856361.136 -8737971.000 10 0 59823 54900.00000 0 -2558960.647 -24755851.212 -5690906.538 10 0 59823 55800.00000 0 -2723312.436 -25263466.399 -2533562.235 10 0 59823 56700.00000 0 -2886830.190 -25368375.169 672849.906 10 0 59823 57600.00000 0 -2994306.933 -25073026.330 3866246.698 10 0 59823 58500.00000 0 -2992564.729 -24392994.377 6984866.118 10 0 59823 59400.00000 0 -2832933.203 -23356298.911 9968448.162 10 0 59823 60300.00000 0 -2473537.037 -22002228.093 12759382.490 10 0 59823 61200.00000 0 -1881297.325 -20379716.086 15303802.068 10 0 59823 62100.00000 0 -1033563.761 -18545342.330 17552603.429 10 0 59823 63000.00000 0 80690.039 -16561035.433 19462375.748 10 0 59823 63900.00000 0 1460157.802 -14491576.107 20996222.567 10 0 59823 64800.00000 0 3091008.496 -12402001.272 22124462.073 10 0 59823 65700.00000 0 4947219.957 -10355015.190 22825193.807 10 0 59823 66600.00000 0 6991426.153 -8408513.123 23084721.737 10 0 59823 67500.00000 0 9176245.305 -6613318.380 22897825.924 10 0 59823 68400.00000 0 11446036.557 -5011225.181 22267877.231 10 0 59823 69300.00000 0 13739015.271 -3633427.651 21206791.896 10 0 59823 70200.00000 0 15989642.094 -2499399.903 19734825.336 10 0 59823 71100.00000 0 18131189.195 -1616274.027 17880207.092 10 0 59823 72000.00000 0 20098378.908 -978742.842 15678621.678 10 0 59823 72900.00000 0 21829986.149 -569492.623 13172542.915 10 0 59823 73800.00000 0 23271296.433 -360149.108 10410432.287 10 0 59823 74700.00000 0 24376316.108 -312698.452 7445814.909 10 0 59823 75600.00000 0 25109640.950 -381324.392 4336249.580 10 0 59823 76500.00000 0 25447902.738 -514584.660 1142212.040 10 0 59823 77400.00000 0 25380730.588 -657834.603 -2074086.799 10 0 59823 78300.00000 0 24911184.195 -755794.537 -5249924.064 10 0 59823 79200.00000 0 24055638.474 -755150.445 -8323304.439 10 0 59823 80100.00000 0 22843122.689 -607075.521 -11234189.965 10 0 59823 81000.00000 0 21314140.857 -269562.931 -13925694.008 10 0 59823 81900.00000 0 19519022.779 290532.022 -16345213.917 10 0 59823 82800.00000 0 17515875.622 1095829.695 -18445478.018 10 0 59823 83700.00000 0 15368223.350 2157216.786 -20185484.716 10 0 59823 84600.00000 0 13142434.753 3473143.113 -21531313.982 10 0 59823 85500.00000 0 10905049.894 5029455.566 -22456794.413 10 0 59824 0.00000 0 8720118.924 6799776.825 -22944012.576 10 0 59824 900.00000 0 6646664.909 8746413.985 -22983655.071 10 0 59824 1800.00000 0 4736380.561 10821755.933 -22575176.795 10 0 59824 2700.00000 0 3031651.226 12970103.142 -21726794.130 10 0 59824 3600.00000 0 1563988.880 15129849.656 -20455303.804 10 0 59824 4500.00000 0 352939.736 17235925.670 -18785732.895 10 0 59824 5400.00000 0 -594491.111 19222397.287 -16750828.384 10 0 59824 6300.00000 0 -1283876.990 21025114.139 -14390397.799 10 0 59824 7200.00000 0 -1732870.641 22584293.868 -11750515.325 10 0 59824 8100.00000 0 -1970193.326 23846935.821 -8882610.183 10 0 59824 9000.00000 0 -2034157.757 24768963.949 -5842456.056 10 0 59824 9900.00000 0 -1970789.734 25317010.674 -2689082.071 10 0 59824 10800.00000 0 -1831629.791 25469768.985 516373.051 10 0 59824 11700.00000 0 -1671308.858 25218858.227 3711841.423 10 0 59824 12600.00000 0 -1545000.776 24569169.465 6835518.308 10 0 59824 13500.00000 0 -1505858.944 23538677.870 9827044.017 10 0 59824 14400.00000 0 -1602544.448 22157731.458 12628653.636 10 0 59824 15300.00000 0 -1876948.662 20467846.843 15186273.737 10 0 59824 16200.00000 0 -2362204.890 18520062.485 17450546.625 10 0 59824 17100.00000 0 -3081071.531 16372917.581 19377764.229 10 0 59824 18000.00000 0 -4044753.759 14090139.636 20930695.391 10 0 59824 18900.00000 0 -5252212.975 11738135.136 22079292.353 10 0 59824 19800.00000 0 -6689993.423 9383385.395 22801264.218 10 0 59824 20700.00000 0 -8332574.482 7089853.454 23082507.219 10 0 59824 21600.00000 0 -10143235.996 4916507.331 22917383.909 10 0 59824 22500.00000 0 -12075403.195 2915060.368 22308845.614 10 0 59824 23400.00000 0 -14074418.128 1128021.060 21268394.867 10 0 59824 24300.00000 0 -16079666.960 -412867.607 19815887.029 10 0 59824 25200.00000 0 -18026977.421 -1687734.617 17979172.929 10 0 59824 26100.00000 0 -19851188.853 -2689186.663 15793587.110 10 0 59824 27000.00000 0 -21488789.335 -3422387.010 13301289.127 10 0 59824 27900.00000 0 -22880510.535 -3904602.935 10550468.294 10 0 59824 28800.00000 0 -23973771.521 -4164239.367 7594425.317 10 0 59824 29700.00000 0 -24724868.074 -4239398.164 4490547.109 10 0 59824 30600.00000 0 -25100813.748 -4176022.946 1299193.833 10 0 59824 31500.00000 0 -25080752.875 -4025707.533 -1917480.231 10 0 59824 32400.00000 0 -24656883.398 -3843261.187 -5096748.453 10 0 59824 33300.00000 0 -23834848.000 -3684134.958 -8176551.215 10 0 59824 34200.00000 0 -22633574.773 -3601820.091 -11096726.804 10 0 59824 35100.00000 0 -21084572.420 -3645331.218 -13800207.780 10 0 59824 36000.00000 0 -19230708.680 -3856883.789 -16234157.200 10 0 59824 36900.00000 0 -17124523.227 -4269866.950 -18351020.336 10 0 59824 37800.00000 0 -14826146.580 -4907200.325 -20109469.512 10 0 59824 38700.00000 0 -12400913.514 -5780146.415 -21475222.206 10 0 59824 39600.00000 0 -9916772.715 -6887630.397 -22421715.481 10 0 59824 40500.00000 0 -7441602.788 -8216096.949 -22930623.292 10 0 59824 41400.00000 0 -5040548.321 -9739910.418 -22992206.755 10 0 59824 42300.00000 0 -2773488.485 -11422281.059 -22605491.241 10 0 59824 43200.00000 0 -692744.178 -13216677.569 -21778267.927 10 0 59824 44100.00000 0 1158880.996 -15068665.377 -20526921.160 10 0 59824 45000.00000 0 2749645.327 -16918092.228 -18876086.571 10 0 59824 45900.00000 0 4059936.823 -18701528.129 -16858148.235 10 0 59824 46800.00000 0 5082822.396 -20354856.435 -14512586.282 10 0 59824 47700.00000 0 5824058.665 -21815906.830 -11885189.230 10 0 59824 48600.00000 0 6301567.463 -23027019.831 -9027147.687 10 0 59824 49500.00000 0 6544401.540 -23937435.826 -5994048.131 10 0 59824 50400.00000 0 6591247.060 -24505409.499 -2844787.232 10 0 59824 51300.00000 0 6488528.545 -24699962.503 359571.772 10 0 59824 52200.00000 0 6288197.995 -24502202.693 3556978.353 10 0 59824 53100.00000 0 6045302.449 -23906156.499 6685586.978 10 0 59824 54000.00000 0 5815432.864 -22919081.379 9684940.053 10 0 59824 54900.00000 0 5652161.421 -21561246.739 12497119.734 10 0 59824 55800.00000 0 5604574.264 -19865193.451 15067847.699 10 0 59824 56700.00000 0 5715002.252 -17874503.259 17347513.367 10 0 59824 57600.00000 0 6017043.780 -15642128.984 19292112.581 10 0 59824 58500.00000 0 6533961.528 -13228354.038 20864080.437 10 0 59824 59400.00000 0 7277519.677 -10698464.408 22033003.958 10 0 59824 60300.00000 0 8247310.169 -8120227.556 22776202.280 10 0 59824 61200.00000 0 9430596.871 -5561280.490 23079164.118 10 0 59824 62100.00000 0 10802685.552 -3086532.729 22935834.474 10 0 59824 63000.00000 0 12327806.372 -755689.514 22348744.851 10 0 59824 63900.00000 0 13960474.678 1379003.914 21328983.541 10 0 59824 64800.00000 0 15647276.276 3274704.746 19896005.099 10 0 59824 65700.00000 0 17329005.625 4899521.769 18077280.673 10 0 59824 66600.00000 0 18943070.263 6233606.739 15907793.650 10 0 59824 67500.00000 0 20426063.039 7269741.928 13429387.918 10 0 59824 68400.00000 0 21716395.756 8013398.216 10689978.992 10 0 59824 69300.00000 0 22756884.155 8482259.990 7742641.296 10 0 59824 70200.00000 0 23497175.115 8705235.502 4644587.767 10 0 59824 71100.00000 0 23895912.533 8720993.333 1456060.684 10 0 59824 72000.00000 0 23922548.451 8576086.036 -1760844.769 10 0 59824 72900.00000 0 23558720.476 8322740.379 -4943400.776 10 0 59824 73800.00000 0 22799134.540 8016408.426 -8029485.992 10 0 59824 74700.00000 0 21651913.074 7713184.666 -10958817.474 10 0 59824 75600.00000 0 20138391.641 7467200.733 -13674149.338 10 0 59824 76500.00000 0 18292370.948 7328110.626 -16122412.531 10 0 59824 77400.00000 0 16158854.883 7338775.662 -18255771.232 10 0 59824 78300.00000 0 13792327.566 7533249.768 -20032573.429 10 0 59824 79200.00000 0 11254642.379 7935152.657 -21418175.647 10 0 59824 80100.00000 0 8612612.688 8556501.359 -22385624.760 10 0 59824 81000.00000 0 5935406.605 9397050.536 -22916183.213 10 0 59824 81900.00000 0 3291856.103 10444169.793 -22999687.622 10 0 59824 82800.00000 0 747794.209 11673262.834 -22634734.355 10 0 59824 83700.00000 0 -1636467.982 13048709.935 -21828689.633 10 0 59824 84600.00000 0 -3808419.270 14525292.854 -20597525.275 10 0 59824 85500.00000 0 -5725286.978 16050040.694 -18965484.877 99